Weather Service Report


947 
ASUS44 KFWD 170015
RWRFWD
NORTH TEXAS HOURLY WEATHER ROUNDUP
NATIONAL WEATHER SERVICE FORT WORTH TX
700 PM CDT MON OCT 16 2017

NOTE: "FAIR" INDICATES FEW OR NO CLOUDS BELOW 12,000 FEET WITH NO
SIGNIFICANT WEATHER AND/OR OBSTRUCTIONS TO VISIBILITY.

TXZ118-119-170100-
DALLAS/FORT WORTH METROPLEX
  
CITY           SKY/WX    TMP DP  RH WIND       PRES   REMARKS
DFW AIRPORT    CLEAR     68  39  34 N5        30.25S                  
6HR MIN TEMP:  67; 6HR MAX TEMP:  74;                                

DALLAS LOVE    CLEAR     70  37  29 NE6       30.26S                  
6HR MIN TEMP:  68; 6HR MAX TEMP:  75;                                

FTW MEACHAM    CLEAR     69  38  32 NE5       30.27R                  
6HR MIN TEMP:  69; 6HR MAX TEMP:  75;                                

DAL-EXECUTIVE  CLEAR     68  40  35 E5        30.26S                  
6HR MIN TEMP:  68; 6HR MAX TEMP:  74;                                

FTW-ALLIANCE   CLEAR     67  40  37 NE3       30.27S                  
6HR MIN TEMP:  67; 6HR MAX TEMP:  74;                                

FTW-NAS-JRB    CLEAR     69  37  30 E3        30.27S                  
6HR MIN TEMP:  69; 6HR MAX TEMP:  74;                                

FTW-SPINKS     CLEAR     66  37  34 N7        30.29S                  
ARLINGTON      CLEAR     62  41  46 NW3       30.27S                  
6HR MIN TEMP:  62; 6HR MAX TEMP:  73;                                

GRAND PRAIRIE  CLEAR     66  36  32 N6        30.28S                  
ADDISON        CLEAR     70  34  26 NE5       30.27S                  
LANCASTER      CLEAR     68  38  33 N3        30.27S                  
6HR MIN TEMP:  66; 6HR MAX TEMP:  73;                                

$$

TXZ091>094-102>105-117-120-121-131>134-170100-
NORTH CENTRAL TEXAS
  
CITY           SKY/WX    TMP DP  RH WIND       PRES   REMARKS
SHRMAN/DENISON CLEAR     65  38  36 CALM      30.29S                  
6HR MIN TEMP:  65; 6HR MAX TEMP:  71;                                

GAINESVILLE    CLEAR     63  40  42 E3        30.30S                  
6HR MIN TEMP:  63; 6HR MAX TEMP:  70;                                

BOWIE          CLEAR     63  44  49 CALM      30.28F                  
6HR MIN TEMP:  63; 6HR MAX TEMP:  71;                                

BRIDGEPORT     CLEAR     64  43  46 CALM      30.30S                  
6HR MIN TEMP:  64; 6HR MAX TEMP:  72;                                

DECATUR        CLEAR     66  37  33 CALM      30.27S                  
6HR MIN TEMP:  66; 6HR MAX TEMP:  73;                                

DENTON         CLEAR     66  38  35 CALM      30.27S                  
6HR MIN TEMP:  66; 6HR MAX TEMP:  73;                                

MCKINNEY       CLEAR     66  38  35 E3        30.27R                  
6HR MIN TEMP:  66; 6HR MAX TEMP:  73;                                

BONHAM         CLEAR     62  40  43 CALM      30.28S                  
6HR MIN TEMP:  62; 6HR MAX TEMP:  70;                                

GREENVILLE     CLEAR     68  37  32 CALM      30.27S                  
ROCKWALL       CLEAR     67  39  36 N3        30.27S                  
6HR MIN TEMP:  67; 6HR MAX TEMP:  73;                                

TERRELL        CLEAR     67  35  30 NE3       30.26S                  
6HR MIN TEMP:  66; 6HR MAX TEMP:  74;                                

WAXAHACHIE     CLEAR     65  42  42 CALM      30.28S                  
6HR MIN TEMP:  65; 6HR MAX TEMP:  73;                                

CLEBURNE       CLEAR     66  37  34 NE5       30.28S                  
GRANBURY       CLEAR     69  36  29 CALM      30.29R                  
6HR MIN TEMP:  69; 6HR MAX TEMP:  74;                                

$$

TXZ083>090-098>101-113>116-127>130-139>142-154-155-170100-
WESTERN NORTH TEXAS
  
CITY           SKY/WX    TMP DP  RH WIND       PRES   REMARKS
WICHITA FALLS  CLEAR     66  36  32 CALM      30.27F                  
6HR MIN TEMP:  66; 6HR MAX TEMP:  72;                                

WF-KICKAPOO    CLEAR     67  39  35 CALM      30.30S                  
6HR MIN TEMP:  66; 6HR MAX TEMP:  72;                                

VERNON         CLEAR     67  30  24 SE3       30.29S                  
ABILENE        CLEAR     67  34  29 CALM      30.30S                  
6HR MIN TEMP:  65; 6HR MAX TEMP:  72;                                

ABILENE-DYESS  CLEAR     67  38  34 CALM      30.29S                  
6HR MIN TEMP:  64; 6HR MAX TEMP:  70;                                

GRAHAM         CLEAR     66  41  40 CALM      30.27S                  
6HR MIN TEMP:  66; 6HR MAX TEMP:  73;                                

BRECKENRIDGE   CLEAR     70  36  28 NE3       30.28S HAZE             
6HR MIN TEMP:  68; 6HR MAX TEMP:  74;                                

CISCO          CLEAR     68  34  28 N5        30.30S                  
EASTLAND       CLEAR     64  42  44 CALM      30.29S                  
6HR MIN TEMP:  62; 6HR MAX TEMP:  72;                                

RANGER         CLEAR     60  45  58 CALM      30.29S                  
6HR MIN TEMP:  42; 6HR MAX TEMP:  91;                                

MINERAL WELLS  CLEAR     67  37  33 NE5       30.27R                  
6HR MIN TEMP:  67; 6HR MAX TEMP:  74;                                

STEPHENVILLE   CLEAR     67  35  30 CALM      30.30S                  
6HR MIN TEMP:  67; 6HR MAX TEMP:  74;                                

COMANCHE       CLEAR     67  37  32 CALM      30.29R                  
6HR MIN TEMP:  67; 6HR MAX TEMP:  72;                                

BROWNWOOD      CLEAR     68  32  26 NE5       30.29R                  
COLEMAN        CLEAR     69  33  26 CALM      30.29S                  
6HR MIN TEMP:  67; 6HR MAX TEMP:  73;                                

$$

TXZ143>147-156>162-174-175-170100-
CENTRAL TEXAS
  
CITY           SKY/WX    TMP DP  RH WIND       PRES   REMARKS
WACO           CLEAR     67  37  33 N7        30.25S                  
6HR MIN TEMP:  67; 6HR MAX TEMP:  76;                                

WACO-TSTC      CLEAR     68  37  32 N5        30.25S                  
WACO-MCGREGOR  CLEAR     68  37  32 N7        30.25F                  
6HR MIN TEMP:  68; 6HR MAX TEMP:  74;                                

HILLSBORO      CLEAR     67  40  36 N3        30.26S                  
6HR MIN TEMP:  67; 6HR MAX TEMP:  73;                                

CORSICANA      CLEAR     67  40  37 N6        30.26S                  
6HR MIN TEMP:  67; 6HR MAX TEMP:  75;                                

MEXIA          CLEAR     67  38  34 N3        30.24S                  
6HR MIN TEMP:  67; 6HR MAX TEMP:  74;                                

HEARNE         CLEAR     65  41  42 N7        30.24R                  
6HR MIN TEMP:  65; 6HR MAX TEMP:  76;                                

CAMERON        CLEAR     68  40  35 N5        30.24R                  
6HR MIN TEMP:  68; 6HR MAX TEMP:  76;                                

TEMPLE         CLEAR     68  38  33 N8        30.25S                  
6HR MIN TEMP:  68; 6HR MAX TEMP:  75;                                

KILLEEN        CLEAR     67  36  32 NE8       30.24S                  
6HR MIN TEMP:  67; 6HR MAX TEMP:  74; 6HR PCP: TRACE;                

KILLEEN-SKYLRK CLEAR     65  41  41 NE7       30.26R                  
6HR MIN TEMP:  65; 6HR MAX TEMP:  74;                                

FORT HOOD      CLEAR     68  39  34 NE6       30.22S                  
6HR MIN TEMP:  67; 6HR MAX TEMP:  74;                                

GATESVILLE     CLEAR     68  37  32 CALM      30.28R                  
HAMILTON       CLEAR     66  39  37 N5        30.29R                  
6HR MIN TEMP:  66; 6HR MAX TEMP:  73;                                

LAMPASAS       CLEAR     67  40  37 CALM      30.26S                  
6HR MIN TEMP:  65; 6HR MAX TEMP:  74;                                

$$

TXZ095>097-106>112-122>126-135>138-148>153-164>167-170100-
EAST TEXAS
  
CITY           SKY/WX    TMP DP  RH WIND       PRES   REMARKS
PARIS          CLEAR     64  41  42 NE3       30.28S                  
6HR MIN TEMP:  65; 6HR MAX TEMP:  71;                                

SULPHUR SPRNGS CLEAR     67  38  35 NE3       30.29S                  
6HR MIN TEMP:  67; 6HR MAX TEMP:  73;                                

MOUNT PLEASANT CLEAR     64  41  42 CALM      30.28S                  
6HR MIN TEMP:  64; 6HR MAX TEMP:  73;                                

GILMER         CLEAR     65  39  37 N5        30.26R                  
6HR MIN TEMP:  65; 6HR MAX TEMP:  71;                                

MINEOLA        CLEAR     61  43  51 CALM      30.26S                  
TYLER          CLEAR     67  36  31 NE5       30.25R                  
6HR MIN TEMP:  67; 6HR MAX TEMP:  75;                                

LONGVIEW       CLEAR     67  40  37 N5        30.24R                  
6HR MIN TEMP:  67; 6HR MAX TEMP:  75;                                

MARSHALL       CLEAR     65  37  34 CALM      30.28R                  
6HR MIN TEMP:  65; 6HR MAX TEMP:  73;                                

ATHENS         CLEAR     64  39  39 CALM      30.24S                  
PALESTINE      CLEAR     68  42  40 N6        30.25S                  
JACKSONVILLE   CLEAR     65  41  41 N3        30.27R                  
HENDERSON      CLEAR     64  41  43 CALM      30.26R                  
6HR MIN TEMP:  64; 6HR MAX TEMP:  74;                                

CENTER         CLEAR     67  40  37 N10       30.24R                  
6HR MIN TEMP:  67; 6HR MAX TEMP:  76;                                

NACOGDOCHES    CLEAR     67  40  37 NE3       30.24R                  
6HR MIN TEMP:  67; 6HR MAX TEMP:  75;                                

LUFKIN         CLEAR     65  47  52 NE3       30.22R                  
6HR MIN TEMP:  65; 6HR MAX TEMP:  74;                                

$$

SUPPLEMENTAL OBSERVATIONS (NWS FORT WORTH AREA)
  
CITY           SKY/WX    TMP DP  RH WIND       PRES   REMARKS
DENISON DAM      N/A     68  37  32 CALM        N/A         


948 
ASUS44 KFWD 170015
RWRTX 
NORTH TEXAS HOURLY WEATHER ROUNDUP
NATIONAL WEATHER SERVICE FORT WORTH TX
700 PM CDT MON OCT 16 2017

NOTE: "FAIR" INDICATES FEW OR NO CLOUDS BELOW 12,000 FEET WITH NO
SIGNIFICANT WEATHER AND/OR OBSTRUCTIONS TO VISIBILITY.

TXZ118-119-170100-
DALLAS/FORT WORTH METROPLEX
  
CITY           SKY/WX    TMP DP  RH WIND       PRES   REMARKS
DFW AIRPORT    CLEAR     68  39  34 N5        30.25S                  
6HR MIN TEMP:  67; 6HR MAX TEMP:  74;                                

DALLAS LOVE    CLEAR     70  37  29 NE6       30.26S                  
6HR MIN TEMP:  68; 6HR MAX TEMP:  75;                                

FTW MEACHAM    CLEAR     69  38  32 NE5       30.27R                  
6HR MIN TEMP:  69; 6HR MAX TEMP:  75;                                

DAL-EXECUTIVE  CLEAR     68  40  35 E5        30.26S                  
6HR MIN TEMP:  68; 6HR MAX TEMP:  74;                                

FTW-ALLIANCE   CLEAR     67  40  37 NE3       30.27S                  
6HR MIN TEMP:  67; 6HR MAX TEMP:  74;                                

FTW-NAS-JRB    CLEAR     69  37  30 E3        30.27S                  
6HR MIN TEMP:  69; 6HR MAX TEMP:  74;                                

FTW-SPINKS     CLEAR     66  37  34 N7        30.29S                  
ARLINGTON      CLEAR     62  41  46 NW3       30.27S                  
6HR MIN TEMP:  62; 6HR MAX TEMP:  73;                                

GRAND PRAIRIE  CLEAR     66  36  32 N6        30.28S                  
ADDISON        CLEAR     70  34  26 NE5       30.27S                  
LANCASTER      CLEAR     68  38  33 N3        30.27S                  
6HR MIN TEMP:  66; 6HR MAX TEMP:  73;                                

$$

TXZ091>094-102>105-117-120-121-131>134-170100-
NORTH CENTRAL TEXAS
  
CITY           SKY/WX    TMP DP  RH WIND       PRES   REMARKS
SHRMAN/DENISON CLEAR     65  38  36 CALM      30.29S                  
6HR MIN TEMP:  65; 6HR MAX TEMP:  71;                                

GAINESVILLE    CLEAR     63  40  42 E3        30.30S                  
6HR MIN TEMP:  63; 6HR MAX TEMP:  70;                                

BOWIE          CLEAR     63  44  49 CALM      30.28F                  
6HR MIN TEMP:  63; 6HR MAX TEMP:  71;                                

BRIDGEPORT     CLEAR     64  43  46 CALM      30.30S                  
6HR MIN TEMP:  64; 6HR MAX TEMP:  72;                                

DECATUR        CLEAR     66  37  33 CALM      30.27S                  
6HR MIN TEMP:  66; 6HR MAX TEMP:  73;                                

DENTON         CLEAR     66  38  35 CALM      30.27S                  
6HR MIN TEMP:  66; 6HR MAX TEMP:  73;                                

MCKINNEY       CLEAR     66  38  35 E3        30.27R                  
6HR MIN TEMP:  66; 6HR MAX TEMP:  73;                                

BONHAM         CLEAR     62  40  43 CALM      30.28S                  
6HR MIN TEMP:  62; 6HR MAX TEMP:  70;                                

GREENVILLE     CLEAR     68  37  32 CALM      30.27S                  
ROCKWALL       CLEAR     67  39  36 N3        30.27S                  
6HR MIN TEMP:  67; 6HR MAX TEMP:  73;                                

TERRELL        CLEAR     67  35  30 NE3       30.26S                  
6HR MIN TEMP:  66; 6HR MAX TEMP:  74;                                

WAXAHACHIE     CLEAR     65  42  42 CALM      30.28S                  
6HR MIN TEMP:  65; 6HR MAX TEMP:  73;                                

CLEBURNE       CLEAR     66  37  34 NE5       30.28S                  
GRANBURY       CLEAR     69  36  29 CALM      30.29R                  
6HR MIN TEMP:  69; 6HR MAX TEMP:  74;                                

$$

TXZ083>090-098>101-113>116-127>130-139>142-154-155-170100-
WESTERN NORTH TEXAS
  
CITY           SKY/WX    TMP DP  RH WIND       PRES   REMARKS
WICHITA FALLS  CLEAR     66  36  32 CALM      30.27F                  
6HR MIN TEMP:  66; 6HR MAX TEMP:  72;                                

WF-KICKAPOO    CLEAR     67  39  35 CALM      30.30S                  
6HR MIN TEMP:  66; 6HR MAX TEMP:  72;                                

VERNON         CLEAR     67  30  24 SE3       30.29S                  
ABILENE        CLEAR     67  34  29 CALM      30.30S                  
6HR MIN TEMP:  65; 6HR MAX TEMP:  72;                                

ABILENE-DYESS  CLEAR     67  38  34 CALM      30.29S                  
6HR MIN TEMP:  64; 6HR MAX TEMP:  70;                                

GRAHAM         CLEAR     66  41  40 CALM      30.27S                  
6HR MIN TEMP:  66; 6HR MAX TEMP:  73;                                

BRECKENRIDGE   CLEAR     70  36  28 NE3       30.28S HAZE             
6HR MIN TEMP:  68; 6HR MAX TEMP:  74;                                

CISCO          CLEAR     68  34  28 N5        30.30S                  
EASTLAND       CLEAR     64  42  44 CALM      30.29S                  
6HR MIN TEMP:  62; 6HR MAX TEMP:  72;                                

RANGER         CLEAR     60  45  58 CALM      30.29S                  
6HR MIN TEMP:  42; 6HR MAX TEMP:  91;                                

MINERAL WELLS  CLEAR     67  37  33 NE5       30.27R                  
6HR MIN TEMP:  67; 6HR MAX TEMP:  74;                                

STEPHENVILLE   CLEAR     67  35  30 CALM      30.30S                  
6HR MIN TEMP:  67; 6HR MAX TEMP:  74;                                

COMANCHE       CLEAR     67  37  32 CALM      30.29R                  
6HR MIN TEMP:  67; 6HR MAX TEMP:  72;                                

BROWNWOOD      CLEAR     68  32  26 NE5       30.29R                  
COLEMAN        CLEAR     69  33  26 CALM      30.29S                  
6HR MIN TEMP:  67; 6HR MAX TEMP:  73;                                

$$

TXZ143>147-156>162-174-175-170100-
CENTRAL TEXAS
  
CITY           SKY/WX    TMP DP  RH WIND       PRES   REMARKS
WACO           CLEAR     67  37  33 N7        30.25S                  
6HR MIN TEMP:  67; 6HR MAX TEMP:  76;                                

WACO-TSTC      CLEAR     68  37  32 N5        30.25S                  
WACO-MCGREGOR  CLEAR     68  37  32 N7        30.25F                  
6HR MIN TEMP:  68; 6HR MAX TEMP:  74;                                

HILLSBORO      CLEAR     67  40  36 N3        30.26S                  
6HR MIN TEMP:  67; 6HR MAX TEMP:  73;                                

CORSICANA      CLEAR     67  40  37 N6        30.26S                  
6HR MIN TEMP:  67; 6HR MAX TEMP:  75;                                

MEXIA          CLEAR     67  38  34 N3        30.24S                  
6HR MIN TEMP:  67; 6HR MAX TEMP:  74;                                

HEARNE         CLEAR     65  41  42 N7        30.24R                  
6HR MIN TEMP:  65; 6HR MAX TEMP:  76;                                

CAMERON        CLEAR     68  40  35 N5        30.24R                  
6HR MIN TEMP:  68; 6HR MAX TEMP:  76;                                

TEMPLE         CLEAR     68  38  33 N8        30.25S                  
6HR MIN TEMP:  68; 6HR MAX TEMP:  75;                                

KILLEEN        CLEAR     67  36  32 NE8       30.24S                  
6HR MIN TEMP:  67; 6HR MAX TEMP:  74; 6HR PCP: TRACE;                

KILLEEN-SKYLRK CLEAR     65  41  41 NE7       30.26R                  
6HR MIN TEMP:  65; 6HR MAX TEMP:  74;                                

FORT HOOD      CLEAR     68  39  34 NE6       30.22S                  
6HR MIN TEMP:  67; 6HR MAX TEMP:  74;                                

GATESVILLE     CLEAR     68  37  32 CALM      30.28R                  
HAMILTON       CLEAR     66  39  37 N5        30.29R                  
6HR MIN TEMP:  66; 6HR MAX TEMP:  73;                                

LAMPASAS       CLEAR     67  40  37 CALM      30.26S                  
6HR MIN TEMP:  65; 6HR MAX TEMP:  74;                                

$$

TXZ095>097-106>112-122>126-135>138-148>153-164>167-170100-
EAST TEXAS
  
CITY           SKY/WX    TMP DP  RH WIND       PRES   REMARKS
PARIS          CLEAR     64  41  42 NE3       30.28S                  
6HR MIN TEMP:  65; 6HR MAX TEMP:  71;                                

SULPHUR SPRNGS CLEAR     67  38  35 NE3       30.29S                  
6HR MIN TEMP:  67; 6HR MAX TEMP:  73;                                

MOUNT PLEASANT CLEAR     64  41  42 CALM      30.28S                  
6HR MIN TEMP:  64; 6HR MAX TEMP:  73;                                

GILMER         CLEAR     65  39  37 N5        30.26R                  
6HR MIN TEMP:  65; 6HR MAX TEMP:  71;                                

MINEOLA        CLEAR     61  43  51 CALM      30.26S                  
TYLER          CLEAR     67  36  31 NE5       30.25R                  
6HR MIN TEMP:  67; 6HR MAX TEMP:  75;                                

LONGVIEW       CLEAR     67  40  37 N5        30.24R                  
6HR MIN TEMP:  67; 6HR MAX TEMP:  75;                                

MARSHALL       CLEAR     65  37  34 CALM      30.28R                  
6HR MIN TEMP:  65; 6HR MAX TEMP:  73;                                

ATHENS         CLEAR     64  39  39 CALM      30.24S                  
PALESTINE      CLEAR     68  42  40 N6        30.25S                  
JACKSONVILLE   CLEAR     65  41  41 N3        30.27R                  
HENDERSON      CLEAR     64  41  43 CALM      30.26R                  
6HR MIN TEMP:  64; 6HR MAX TEMP:  74;                                

CENTER         CLEAR     67  40  37 N10       30.24R                  
6HR MIN TEMP:  67; 6HR MAX TEMP:  76;                                

NACOGDOCHES    CLEAR     67  40  37 NE3       30.24R                  
6HR MIN TEMP:  67; 6HR MAX TEMP:  75;                                

LUFKIN         CLEAR     65  47  52 NE3       30.22R                  
6HR MIN TEMP:  65; 6HR MAX TEMP:  74;                                

$$

SUPPLEMENTAL OBSERVATIONS (NWS FORT WORTH AREA)
  
CITY           SKY/WX    TMP DP  RH WIND       PRES   REMARKS
DENISON DAM      N/A     68  37  32 CALM        N/A         

Return to Home page


Western Regional Climate Center, wrcc@dri.edu